This is the latest recevied weather packets stored in our database for station/object KI4HRG. If no packets are shown the sender has not sent any weather packets the latest 10 day(s).
| Time | Temp. | Humidity | Pressure | Rain* | Wind** | Luminosity | Snow |
|---|---|---|---|---|---|---|---|
| 1787498188 | 28.89° C | 76% | 1017.5 hPa | 0 mm | - | 789 W/m² | - |
| 1787497884 | 28.33° C | 77% | 1017.2 hPa | 0 mm | - | 635 W/m² | - |
| 1787497579 | 27.22° C | 79% | 1017.3 hPa | 0 mm | - | 645 W/m² | - |
| 1787497274 | 27.22° C | 80% | 1017.4 hPa | 0 mm | - | 333 W/m² | - |
| 1787496974 | 27.22° C | 80% | 1017.2 hPa | 0 mm | - | 314 W/m² | - |
| 1787496673 | 27.78° C | 80% | 1017.1 hPa | 0 mm | - | 291 W/m² | - |
| 1787496368 | 27.78° C | 79% | 1017 hPa | 0 mm | - | 377 W/m² | - |
| 1787496062 | 27.78° C | 78% | 1017 hPa | 0 mm | - | 418 W/m² | - |
| 1787495757 | 27.78° C | 78% | 1016.9 hPa | 0 mm | - | 586 W/m² | - |
| 1787495453 | 27.78° C | 79% | 1017 hPa | 0 mm | - | 551 W/m² | - |
| 1787495149 | 27.78° C | 77% | 1017.1 hPa | 0 mm | - | 534 W/m² | - |
| 1787494844 | 27.22° C | 79% | 1017.1 hPa | 0 mm | - | 495 W/m² | - |
| 1787494539 | 27.22° C | 79% | 1017 hPa | 0 mm | - | 518 W/m² | - |
| 1787494234 | 27.22° C | 80% | 1017 hPa | 0 mm | - | 462 W/m² | - |
| 1787493931 | 26.67° C | 81% | 1016.9 hPa | 0 mm | - | 436 W/m² | - |
| 1787493626 | 26.11° C | 82% | 1017 hPa | 0 mm | - | 357 W/m² | - |
| 1787493321 | 26.11° C | 82% | 1017 hPa | 0 mm | - | 331 W/m² | - |
| 1787493017 | 26.11° C | 83% | 1017 hPa | 0 mm | - | 344 W/m² | - |
| 1787492712 | 26.11° C | 82% | 1017.1 hPa | 0 mm | - | 312 W/m² | - |
| 1787492408 | 25.56° C | 84% | 1017 hPa | 0 mm | - | 282 W/m² | - |
| 1787492103 | 25.56° C | 85% | 1017 hPa | 0 mm | - | 269 W/m² | - |
| 1787491798 | 25.56° C | 84% | 1016.8 hPa | 0 mm | - | 280 W/m² | - |
| 1787491494 | 25.56° C | 84% | 1016.9 hPa | 0 mm | - | 251 W/m² | - |
| 1787491189 | 25° C | 85% | 1016.8 hPa | 0 mm | - | 244 W/m² | - |
| 1787490885 | 25° C | 85% | 1017 hPa | 0 mm | - | 229 W/m² | - |
* Rain latest hour (hover to see other rain measurements)
** Current wind speed in m/s (hover to see current wind gust speed)